Tracking 31027 objects as of 19-Jul-2025
HD Live streaming from Space Station
objects crossing your sky now

COSMOS 249 DEB

Track COSMOS 249 DEB now!
10-day predictions


NORAD ID: 19317
Int'l Code: 1968-091DH
Perigee: 545.6 km
Apogee: 1,670.3 km
Inclination: 62.8 °
Period: 107.3 minutes
Semi major axis: 7478 km
RCS: 0.0014 m2 (small)
Launch date: October 20, 1968
Source: Commonwealth of Independent States (former USSR) (CIS)
Launch site: TYURATAM MISSILE AND SPACE COMPLEX (TTMTR)

Note: This is SATELLITE DEBRIS
Your satellite tracking list
COSMOS 2502
Track 1 satellite(s)




NASA's NSSDC Master Catalog

Two Line Element Set (TLE):
1 19317U 68091DH  25199.27108874  .00000334  00000-0  14235-3 0  9996
2 19317  62.8397  81.9924 0751907 176.9294 183.6751 13.42279843802530
Source of the keplerian elements: AFSPC